sat.trackr.live / text

‹ back to catalog

STARLINK-34950

NORAD 65193 · 2025-175V

PAYLOAD ACTIVE UNKNOWN

§ Identity

Operator
Country
US
Launch date
2025-08-14
Launch site
AFWTR
Launch vehicle
Mass (kg)
RCS (m²)

Purposes: comms

External: N2YO · Heavens-Above · Gunter

§ Orbital elements

Epoch: 2026-09-20T21:36:22.329216Z

Period
93.91 min
Inclination
97.2817°
Eccentricity
0.0002901
Mean motion
15.33444594 rev/d
Perigee alt
463.6 km
Apogee alt
467.5 km
Semi-major
6,843.7 km
B*
3.0202e-4
RAAN
132.8709°
Arg perigee
91.6049°
Mean anomaly
268.5527°
Rev number
6,216

§ Raw data

STARLINK-349501 65193U 25175V   26263.90025844  .00009689  00000+0  30202-3 0  99962 65193  97.2817 132.8709 0002901  91.6049 268.5527 15.33444594 62163

JSON: /api/v1/satellites/65193 · /tle

For live sub-satellite position, see the globe view (requires WebGL).

§ Visibility from observer

Set your observer location to see the next 7 days of passes ≥ 10°. The values pass through the URL so the page stays shareable.

No JS? Fill the form by hand. The geolocation button needs JavaScript.